Orbital Elements at Epoch 2459000.5 (2020-May-31.0) TDB
Reference: JPL 19 (heliocentric ecliptic J2000)
Element | Value | Uncertainty (1-sigma) | Units |
e | .01026035341484687 | 4.7931e-08 | |
a | 2.775849988650502 | 2.8386e-08 | au |
q | 2.74736878674035 | 1.3145e-07 | au |
i | 5.130434501827468 | 4.859e-06 | deg |
node | 70.07985169679047 | 5.9727e-05 | deg |
peri | 83.5082829589435 | 0.00025277 | deg |
M | 25.2740054505608 | 0.00024439 | deg |
tp | 2458881.905652603054 (2020-Feb-02.40565260) | 0.0011469 | TDB |
period | 1689.244118682159 4.62 | 2.5911e-05 7.094e-08 | d yr |
n | .213113069933817 | 3.2689e-09 | deg/d |
Q | 2.804331190560655 | 2.8677e-08 | au |
|
| | Orbit Determination Parameters
Additional Information
|